Time,TemperatureF,DewpointF,PressureIn,WindDirection,WindDirectionDegrees,WindSpeedMPH,WindSpeedGustMPH,Humidity,HourlyPrecipIn,Conditions,Clouds,dailyrainin,SolarRadiationWatts/m^2,SoftwareType,DateUTC
2013-07-26 00:02:00,77.0,61.0,-100.00,WSW,239,3.0,9.0,57,-99.99,,,-99.99,0.000000,,2013-07-26 06:02:00,
2013-07-26 00:12:00,77.0,60.0,-100.00,South,191,1.0,6.0,56,-99.99,,,-99.99,0.000000,,2013-07-26 06:12:00,
2013-07-26 00:22:00,77.0,59.0,-100.00,SE,129,1.0,5.0,54,-99.99,,,-99.99,0.000000,,2013-07-26 06:22:00,
2013-07-26 00:33:00,77.0,59.0,-100.00,SE,129,1.0,5.0,54,-99.99,,,-99.99,0.000000,,2013-07-26 06:33:00,
2013-07-26 00:43:00,77.0,58.0,-100.00,West,268,4.0,11.0,52,-99.99,,,-99.99,0.000000,,2013-07-26 06:43:00,
2013-07-26 01:02:00,77.0,58.0,-100.00,WSW,251,5.0,16.0,51,-99.99,,,-99.99,0.000000,,2013-07-26 07:02:00,
2013-07-26 01:12:00,77.0,58.0,-100.00,WSW,258,6.0,13.0,51,-99.99,,,-99.99,0.000000,,2013-07-26 07:12:00,
2013-07-26 01:22:00,77.0,58.0,-100.00,WSW,242,3.0,9.0,52,-99.99,,,-99.99,0.000000,,2013-07-26 07:22:00,
2013-07-26 01:32:00,77.0,58.0,-100.00,WSW,242,3.0,9.0,52,-99.99,,,-99.99,0.000000,,2013-07-26 07:32:00,
2013-07-26 01:43:00,77.0,58.0,-100.00,SW,226,4.0,15.0,51,-99.99,,,-99.99,0.000000,,2013-07-26 07:43:00,
2013-07-26 02:02:00,76.0,59.0,-100.00,WSW,249,6.0,19.0,54,-99.99,,,-99.99,0.000000,,2013-07-26 08:02:00,
2013-07-26 02:12:00,76.0,59.0,-100.00,SW,234,6.0,15.0,54,-99.99,,,-99.99,0.000000,,2013-07-26 08:12:00,
2013-07-26 02:22:00,76.0,59.0,-100.00,West,263,3.0,8.0,55,-99.99,,,-99.99,0.000000,,2013-07-26 08:22:00,
2013-07-26 02:32:00,76.0,59.0,-100.00,West,263,3.0,8.0,55,-99.99,,,-99.99,0.000000,,2013-07-26 08:32:00,
2013-07-26 02:44:00,76.0,60.0,-100.00,WSW,254,3.0,13.0,56,-99.99,,,-99.99,0.000000,,2013-07-26 08:44:00,
2013-07-26 02:52:00,76.0,60.0,-100.00,West,274,3.0,12.0,57,-99.99,,,-99.99,0.000000,,2013-07-26 08:52:00,
2013-07-26 03:02:00,76.0,60.0,-100.00,West,274,3.0,12.0,57,-99.99,,,-99.99,0.000000,,2013-07-26 09:02:00,
2013-07-26 03:12:00,76.0,60.0,-100.00,NW,310,4.0,11.0,58,-99.99,,,-99.99,0.000000,,2013-07-26 09:12:00,
2013-07-26 03:32:00,75.0,60.0,-100.00,WNW,289,7.0,12.0,59,-99.99,,,-99.99,0.000000,,2013-07-26 09:32:00,
2013-07-26 03:43:00,75.0,61.0,-100.00,WNW,299,10.0,13.0,62,-99.99,,,-99.99,0.000000,,2013-07-26 09:43:00,
2013-07-26 03:52:00,73.0,61.0,-100.00,WNW,299,11.0,15.0,66,-99.99,,,-99.99,0.000000,,2013-07-26 09:52:00,
2013-07-26 04:02:00,73.0,61.0,-100.00,WNW,299,11.0,15.0,66,-99.99,,,-99.99,0.000000,,2013-07-26 10:02:00,
2013-07-26 04:12:00,73.0,61.0,-100.00,WNW,299,11.0,15.0,66,-99.99,,,-99.99,0.000000,,2013-07-26 10:12:00,
2013-07-26 04:33:00,74.0,60.0,-100.00,WNW,293,10.0,16.0,61,-99.99,,,-99.99,0.000000,,2013-07-26 10:33:00,
2013-07-26 04:42:00,75.0,60.0,-100.00,WNW,287,9.0,14.0,60,-99.99,,,-99.99,0.000000,,2013-07-26 10:42:00,
2013-07-26 05:02:00,75.0,60.0,-100.00,WNW,283,6.0,12.0,60,-99.99,,,-99.99,0.000000,,2013-07-26 11:02:00,
2013-07-26 05:12:00,75.0,60.0,-100.00,West,277,9.0,15.0,59,-99.99,,,-99.99,0.000000,,2013-07-26 11:12:00,
2013-07-26 05:22:00,75.0,60.0,-100.00,West,281,9.0,17.0,59,-99.99,,,-99.99,0.000000,,2013-07-26 11:22:00,
2013-07-26 05:32:00,75.0,60.0,-100.00,West,281,9.0,17.0,59,-99.99,,,-99.99,0.000000,,2013-07-26 11:32:00,
2013-07-26 05:43:00,75.0,60.0,-100.00,WNW,291,7.0,15.0,59,-99.99,,,-99.99,0.000000,,2013-07-26 11:43:00,
2013-07-26 06:02:00,75.0,60.0,-100.00,NW,312,3.0,9.0,59,-99.99,,,-99.99,0.000000,,2013-07-26 12:02:00,
2013-07-26 06:12:00,74.0,59.0,-100.00,NNW,339,3.0,9.0,59,-99.99,,,-99.99,0.000000,,2013-07-26 12:12:00,
2013-07-26 06:22:00,74.0,59.0,-100.00,WNW,298,7.0,11.0,60,-99.99,,,-99.99,0.000000,,2013-07-26 12:22:00,
2013-07-26 06:33:00,74.0,59.0,-100.00,WNW,298,7.0,11.0,60,-99.99,,,-99.99,0.000000,,2013-07-26 12:33:00,
2013-07-26 06:43:00,74.0,59.0,-100.00,WNW,283,3.0,9.0,59,-99.99,,,-99.99,0.700000,,2013-07-26 12:43:00,
2013-07-26 07:02:00,74.0,59.0,-100.00,NNE,33,2.0,5.0,59,-99.99,,,-99.99,4.180000,,2013-07-26 13:02:00,
2013-07-26 07:12:00,73.0,59.0,-100.00,NE,50,2.0,6.0,61,-99.99,,,-99.99,14.640000,,2013-07-26 13:12:00,
2013-07-26 07:32:00,74.0,60.0,-100.00,NW,306,4.0,5.0,61,-99.99,,,-99.99,25.799999,,2013-07-26 13:32:00,
2013-07-26 07:43:00,74.0,60.0,-100.00,WNW,300,7.0,11.0,61,-99.99,,,-99.99,36.259998,,2013-07-26 13:43:00,
2013-07-26 07:53:00,75.0,60.0,-100.00,WNW,290,6.0,10.0,58,-99.99,,,-99.99,53.000000,,2013-07-26 13:53:00,
2013-07-26 08:02:00,75.0,60.0,-100.00,WNW,290,6.0,10.0,58,-99.99,,,-99.99,53.000000,,2013-07-26 14:02:00,
2013-07-26 08:12:00,75.0,60.0,-100.00,WNW,282,8.0,12.0,58,-99.99,,,-99.99,53.689999,,2013-07-26 14:12:00,
2013-07-26 08:22:00,75.0,60.0,-100.00,WNW,292,6.0,11.0,59,-99.99,,,-99.99,85.070000,,2013-07-26 14:22:00,
2013-07-26 08:32:00,75.0,60.0,-100.00,WNW,292,6.0,11.0,59,-99.99,,,-99.99,85.070000,,2013-07-26 14:32:00,
2013-07-26 08:43:00,76.0,60.0,-100.00,WSW,240,4.0,10.0,57,-99.99,,,-99.99,221.050003,,2013-07-26 14:43:00,
2013-07-26 09:02:00,77.0,61.0,-100.00,SE,134,4.0,7.0,58,-99.99,,,-99.99,313.799988,,2013-07-26 15:02:00,
2013-07-26 09:12:00,76.0,63.0,-100.00,SE,135,5.0,9.0,64,-99.99,,,-99.99,355.640015,,2013-07-26 15:12:00,
2013-07-26 09:32:00,75.0,64.0,-100.00,SE,134,7.0,10.0,67,-99.99,,,-99.99,400.970001,,2013-07-26 15:32:00,
2013-07-26 09:43:00,75.0,64.0,-100.00,SE,145,4.0,9.0,68,-99.99,,,-99.99,438.619995,,2013-07-26 15:43:00,
2013-07-26 10:02:00,77.0,63.0,-100.00,South,184,2.0,5.0,62,-99.99,,,-99.99,472.089996,,2013-07-26 16:02:00,
2013-07-26 10:14:00,79.0,62.0,-100.00,SSE,149,2.0,7.0,57,-99.99,,,-99.99,518.119995,,2013-07-26 16:14:00,
2013-07-26 10:22:00,79.0,62.0,-100.00,SE,127,3.0,7.0,56,-99.99,,,-99.99,564.840027,,2013-07-26 16:22:00,
2013-07-26 10:32:00,79.0,62.0,-100.00,SE,127,3.0,7.0,56,-99.99,,,-99.99,564.840027,,2013-07-26 16:32:00,
2013-07-26 10:43:00,79.0,62.0,-100.00,SSE,163,4.0,8.0,55,-99.99,,,-99.99,601.799988,,2013-07-26 16:43:00,
2013-07-26 10:54:00,79.0,62.0,-100.00,SE,126,5.0,9.0,55,-99.99,,,-99.99,638.760010,,2013-07-26 16:54:00,
2013-07-26 11:02:00,79.0,62.0,-100.00,SE,126,5.0,9.0,55,-99.99,,,-99.99,638.760010,,2013-07-26 17:02:00,
2013-07-26 11:12:00,80.0,62.0,-100.00,SSE,159,3.0,9.0,53,-99.99,,,-99.99,670.140015,,2013-07-26 17:12:00,
2013-07-26 11:22:00,81.0,62.0,-100.00,ESE,115,4.0,10.0,52,-99.99,,,-99.99,708.489990,,2013-07-26 17:22:00,
2013-07-26 11:33:00,81.0,62.0,-100.00,ESE,115,4.0,10.0,52,-99.99,,,-99.99,708.489990,,2013-07-26 17:33:00,
2013-07-26 11:43:00,81.0,61.0,-100.00,ESE,118,5.0,12.0,50,-99.99,,,-99.99,746.150024,,2013-07-26 17:43:00,
2013-07-26 11:53:00,81.0,61.0,-100.00,ESE,109,7.0,11.0,50,-99.99,,,-99.99,784.500000,,2013-07-26 17:53:00,
2013-07-26 12:02:00,81.0,61.0,-100.00,ESE,109,7.0,11.0,50,-99.99,,,-99.99,784.500000,,2013-07-26 18:02:00,
2013-07-26 12:12:00,81.0,61.0,-100.00,ESE,112,8.0,15.0,49,-99.99,,,-99.99,822.849976,,2013-07-26 18:12:00,
2013-07-26 12:22:00,81.0,60.0,-100.00,ESE,115,6.0,13.0,49,-99.99,,,-99.99,864.690002,,2013-07-26 18:22:00,
2013-07-26 12:33:00,81.0,60.0,-100.00,ESE,115,6.0,13.0,49,-99.99,,,-99.99,864.690002,,2013-07-26 18:33:00,
2013-07-26 12:43:00,82.0,60.0,-100.00,SE,137,6.0,13.0,47,-99.99,,,-99.99,891.890015,,2013-07-26 18:43:00,
2013-07-26 13:02:00,82.0,60.0,-100.00,SE,140,5.0,13.0,46,-99.99,,,-99.99,958.140015,,2013-07-26 19:02:00,
2013-07-26 13:12:00,84.0,60.0,-100.00,SSW,207,3.0,10.0,44,-99.99,,,-99.99,1008.340027,,2013-07-26 19:12:00,
2013-07-26 13:22:00,84.0,60.0,-100.00,SSE,163,5.0,10.0,44,-99.99,,,-99.99,695.940002,,2013-07-26 19:22:00,
2013-07-26 13:32:00,84.0,60.0,-100.00,SSE,163,5.0,10.0,44,-99.99,,,-99.99,695.940002,,2013-07-26 19:32:00,
2013-07-26 13:43:00,84.0,60.0,-100.00,East,80,4.0,11.0,44,-99.99,,,-99.99,214.779999,,2013-07-26 19:43:00,
2013-07-26 14:02:00,79.0,63.0,-100.00,North,355,14.0,25.0,56,-99.99,,,-99.99,92.750000,,2013-07-26 20:02:00,
2013-07-26 14:53:00,74.0,64.0,-100.00,West,279,8.0,14.0,72,-99.99,,,-99.99,74.610001,,2013-07-26 20:53:00,
2013-07-26 15:02:00,74.0,64.0,-100.00,West,279,8.0,14.0,72,-99.99,,,-99.99,74.610001,,2013-07-26 21:02:00,
2013-07-26 15:12:00,75.0,65.0,-100.00,NNW,327,6.0,10.0,71,-99.99,,,-99.99,113.669998,,2013-07-26 21:12:00,
2013-07-26 15:22:00,77.0,64.0,-100.00,NW,322,6.0,12.0,64,-99.99,,,-99.99,89.260002,,2013-07-26 21:22:00,
2013-07-26 15:32:00,77.0,64.0,-100.00,NW,322,6.0,12.0,64,-99.99,,,-99.99,89.260002,,2013-07-26 21:32:00,
2013-07-26 15:43:00,75.0,64.0,-100.00,NNW,337,9.0,14.0,66,-99.99,,,-99.99,46.020000,,2013-07-26 21:43:00,
2013-07-26 16:01:00,75.0,64.0,-100.00,North,349,5.0,7.0,67,-99.99,,,-99.99,28.590000,,2013-07-26 22:01:00,
2013-07-26 16:12:00,76.0,65.0,-100.00,NW,306,4.0,7.0,68,-99.99,,,-99.99,19.530001,,2013-07-26 22:12:00,
2013-07-26 16:22:00,76.0,63.0,-100.00,South,186,7.0,13.0,63,-99.99,,,-99.99,16.040001,,2013-07-26 22:22:00,
2013-07-26 16:33:00,76.0,63.0,-100.00,South,186,7.0,13.0,63,-99.99,,,-99.99,16.040001,,2013-07-26 22:33:00,
2013-07-26 16:43:00,76.0,62.0,-100.00,South,185,6.0,9.0,61,-99.99,,,-99.99,16.040001,,2013-07-26 22:43:00,
2013-07-26 16:53:00,76.0,61.0,-100.00,SSW,200,6.0,11.0,60,-99.99,,,-99.99,18.129999,,2013-07-26 22:53:00,
2013-07-26 17:02:00,76.0,61.0,-100.00,SSW,200,6.0,11.0,60,-99.99,,,-99.99,18.129999,,2013-07-26 23:02:00,
2013-07-26 17:12:00,76.0,61.0,-100.00,South,178,4.0,9.0,60,-99.99,,,-99.99,20.920000,,2013-07-26 23:12:00,
2013-07-26 17:22:00,76.0,62.0,-100.00,SSW,210,1.0,2.0,61,-99.99,,,-99.99,22.309999,,2013-07-26 23:22:00,
2013-07-26 17:32:00,76.0,62.0,-100.00,SSW,210,1.0,2.0,61,-99.99,,,-99.99,22.309999,,2013-07-26 23:32:00,
2013-07-26 17:43:00,76.0,65.0,-100.00,North,353,3.0,6.0,68,-99.99,,,-99.99,21.620001,,2013-07-26 23:43:00,
2013-07-26 17:53:00,75.0,65.0,-100.00,NW,309,3.0,5.0,70,-99.99,,,-99.99,21.620001,,2013-07-26 23:53:00,
2013-07-26 18:02:00,75.0,65.0,-100.00,NW,309,3.0,5.0,70,-99.99,,,-99.99,21.620001,,2013-07-27 00:02:00,
2013-07-26 18:12:00,76.0,62.0,-100.00,SW,214,4.0,8.0,63,-99.99,,,-99.99,23.709999,,2013-07-27 00:12:00,
2013-07-26 18:22:00,76.0,61.0,-100.00,SW,216,5.0,8.0,60,-99.99,,,-99.99,23.010000,,2013-07-27 00:22:00,
2013-07-26 18:32:00,76.0,61.0,-100.00,SW,216,5.0,8.0,60,-99.99,,,-99.99,23.010000,,2013-07-27 00:32:00,
2013-07-26 18:43:00,76.0,61.0,-100.00,SSW,196,5.0,7.0,60,-99.99,,,-99.99,23.010000,,2013-07-27 00:43:00,
2013-07-26 19:02:00,76.0,62.0,-100.00,SSW,196,6.0,9.0,60,-99.99,,,-99.99,21.620001,,2013-07-27 01:02:00,
2013-07-26 19:12:00,76.0,63.0,-100.00,WSW,238,3.0,7.0,64,-99.99,,,-99.99,17.430000,,2013-07-27 01:12:00,
2013-07-26 19:22:00,76.0,62.0,-100.00,SW,220,2.0,4.0,63,-99.99,,,-99.99,12.550000,,2013-07-27 01:22:00,
2013-07-26 19:32:00,76.0,62.0,-100.00,SW,220,2.0,4.0,63,-99.99,,,-99.99,12.550000,,2013-07-27 01:32:00,
2013-07-26 19:43:00,75.0,62.0,-100.00,SW,228,5.0,9.0,64,-99.99,,,-99.99,9.070000,,2013-07-27 01:43:00,
2013-07-26 20:02:00,75.0,62.0,-100.00,WSW,252,6.0,9.0,64,-99.99,,,-99.99,5.580000,,2013-07-27 02:02:00,
2013-07-26 20:12:00,75.0,62.0,-100.00,WSW,251,6.0,10.0,63,-99.99,,,-99.99,3.490000,,2013-07-27 02:12:00,
2013-07-26 20:22:00,75.0,60.0,-100.00,WSW,237,4.0,9.0,60,-99.99,,,-99.99,1.390000,,2013-07-27 02:22:00,
2013-07-26 20:32:00,75.0,60.0,-100.00,WSW,237,4.0,9.0,60,-99.99,,,-99.99,1.390000,,2013-07-27 02:32:00,
2013-07-26 20:43:00,76.0,59.0,-100.00,SW,214,5.0,8.0,56,-99.99,,,-99.99,0.000000,,2013-07-27 02:43:00,
2013-07-26 20:53:00,76.0,59.0,-100.00,SSW,207,4.0,8.0,55,-99.99,,,-99.99,0.000000,,2013-07-27 02:53:00,
2013-07-26 21:03:00,76.0,59.0,-100.00,SSW,207,4.0,8.0,55,-99.99,,,-99.99,0.000000,,2013-07-27 03:03:00,
2013-07-26 21:12:00,76.0,59.0,-100.00,SW,214,3.0,5.0,56,-99.99,,,-99.99,0.000000,,2013-07-27 03:12:00,
2013-07-26 21:22:00,76.0,59.0,-100.00,SSE,164,3.0,5.0,57,-99.99,,,-99.99,0.000000,,2013-07-27 03:22:00,
2013-07-26 21:33:00,76.0,59.0,-100.00,SSE,164,3.0,5.0,57,-99.99,,,-99.99,0.000000,,2013-07-27 03:33:00,
2013-07-26 21:44:00,75.0,59.0,-100.00,SSE,154,1.0,4.0,57,-99.99,,,-99.99,0.000000,,2013-07-27 03:44:00,
2013-07-26 21:52:00,75.0,61.0,-100.00,NNW,332,3.0,4.0,61,-99.99,,,-99.99,0.000000,,2013-07-27 03:52:00,
2013-07-26 22:02:00,75.0,61.0,-100.00,NNW,332,3.0,4.0,61,-99.99,,,-99.99,0.000000,,2013-07-27 04:02:00,
2013-07-26 22:12:00,75.0,60.0,-100.00,NW,317,3.0,5.0,61,-99.99,,,-99.99,0.000000,,2013-07-27 04:12:00,
2013-07-26 22:22:00,75.0,60.0,-100.00,WNW,289,2.0,4.0,59,-99.99,,,-99.99,0.000000,,2013-07-27 04:22:00,
2013-07-26 22:32:00,75.0,60.0,-100.00,WNW,289,2.0,4.0,59,-99.99,,,-99.99,0.000000,,2013-07-27 04:32:00,
2013-07-26 22:43:00,75.0,61.0,-100.00,NW,321,2.0,4.0,61,-99.99,,,-99.99,0.000000,,2013-07-27 04:43:00,
2013-07-26 23:02:00,75.0,61.0,-100.00,NW,326,3.0,5.0,62,-99.99,,,-99.99,0.000000,,2013-07-27 05:02:00,
2013-07-26 23:12:00,74.0,62.0,-100.00,NNW,331,5.0,6.0,67,-99.99,,,-99.99,0.000000,,2013-07-27 05:12:00,
2013-07-26 23:22:00,74.0,62.0,-100.00,NNW,327,5.0,6.0,65,-99.99,,,-99.99,0.000000,,2013-07-27 05:22:00,
2013-07-26 23:32:00,74.0,62.0,-100.00,NNW,327,5.0,6.0,65,-99.99,,,-99.99,0.000000,,2013-07-27 05:32:00,
2013-07-26 23:43:00,74.0,62.0,-100.00,NW,324,4.0,6.0,64,-99.99,,,-99.99,0.000000,,2013-07-27 05:43:00,